When you browse on this site, cookies collect data to enhance your experience and personalize the content and advertising you see.
Visit our Privacy Policy to learn more. By continuing to use the site, you agree to this use of cookies and data.
EN

Hourly Weather Balho

Today, 13 August, Thursday

Time Temperature Precipitation Wind Pressure Humidity
00:00 +35°C° 0 mm 1 mps 732 mmHg 43%
01:00 +35°C° 0 mm 1 mps 731 mmHg 44%
02:00 +35°C° 0 mm 1 mps 731 mmHg 46%
03:00 +34°C° 0 mm 1 mps 730 mmHg 48%
04:00 +34°C° 0 mm 1 mps 731 mmHg 48%
05:00 +34°C° 0 mm 1 mps 731 mmHg 49%
06:00 +33°C° 0 mm 1 mps 731 mmHg 49%
07:00 +34°C° 0 mm 1 mps 731 mmHg 43%
08:00 +37°C° 0 mm 2 mps 732 mmHg 37%
09:00 +38°C° 0 mm 3 mps 732 mmHg 30%
10:00 +39°C° 0 mm 3 mps 732 mmHg 28%
11:00 +41°C° 0 mm 4 mps 732 mmHg 26%
12:00 +43°C° 0 mm 5 mps 731 mmHg 24%
13:00 +43°C° 0 mm 5 mps 731 mmHg 23%
14:00 +45°C° 0 mm 6 mps 730 mmHg 22%
15:00 +45°C° 0 mm 6 mps 730 mmHg 21%
16:00 +45°C° 0 mm 6 mps 729 mmHg 21%
17:00 +45°C° 0 mm 6 mps 729 mmHg 21%
18:00 +44°C° 0 mm 6 mps 729 mmHg 21%
19:00 +42°C° 0 mm 5 mps 730 mmHg 24%
20:00 +41°C° 0 mm 5 mps 730 mmHg 27%
21:00 +38°C° 0 mm 4 mps 730 mmHg 29%
22:00 +37°C° 0 mm 3 mps 730 mmHg 30%
23:00 +37°C° 0 mm 3 mps 731 mmHg 31%

Tomorrow, 14 August, Friday

Time Temperature Precipitation Wind Pressure Humidity
00:00 +36°C° 0 mm 2 mps 731 mmHg 32%
01:00 +36°C° 0 mm 2 mps 730 mmHg 34%
02:00 +35°C° 0 mm 1 mps 730 mmHg 36%
03:00 +32°C° 0 mm 0 mps 730 mmHg 37%
04:00 +32°C° 0 mm 0 mps 730 mmHg 38%
05:00 +34°C° 0 mm 1 mps 730 mmHg 38%
06:00 +34°C° 0 mm 1 mps 731 mmHg 39%
07:00 +35°C° 0 mm 1 mps 731 mmHg 35%
08:00 +35°C° 0 mm 1 mps 731 mmHg 32%
09:00 +36°C° 0 mm 1 mps 732 mmHg 28%
10:00 +37°C° 0 mm 1 mps 731 mmHg 27%
11:00 +39°C° 0 mm 1 mps 731 mmHg 26%
12:00 +40°C° 0 mm 1 mps 731 mmHg 24%
13:00 +40°C° 0 mm 2 mps 730 mmHg 24%
14:00 +42°C° 0 mm 3 mps 729 mmHg 23%
15:00 +43°C° 0 mm 4 mps 729 mmHg 22%
16:00 +42°C° 0.2 mm 5 mps 729 mmHg 26%
17:00 +41°C° 0.2 mm 5 mps 728 mmHg 29%
18:00 +41°C° 0.2 mm 5 mps 728 mmHg 32%
19:00 +40°C° 0.3 mm 5 mps 729 mmHg 34%
20:00 +39°C° 0.3 mm 5 mps 729 mmHg 37%
21:00 +39°C° 0.3 mm 6 mps 730 mmHg 40%
22:00 +37°C° 0 mm 5 mps 730 mmHg 42%
23:00 +37°C° 0 mm 4 mps 729 mmHg 44%

Day after tomorrow, 15 August, Saturday

Time Temperature Precipitation Wind Pressure Humidity
00:00 +36°C° 0 mm 4 mps 729 mmHg 46%
01:00 +36°C° 0 mm 3 mps 729 mmHg 46%
02:00 +36°C° 0 mm 3 mps 729 mmHg 47%
03:00 +36°C° 0 mm 3 mps 729 mmHg 48%
04:00 +35°C° 0 mm 2 mps 729 mmHg 49%
05:00 +35°C° 0 mm 2 mps 730 mmHg 50%
06:00 +35°C° 0 mm 2 mps 730 mmHg 50%
07:00 +35°C° 0 mm 2 mps 730 mmHg 50%
08:00 +35°C° 0 mm 3 mps 731 mmHg 50%
09:00 +35°C° 0 mm 3 mps 731 mmHg 51%
10:00 +36°C° 0 mm 3 mps 731 mmHg 47%
11:00 +37°C° 0 mm 3 mps 731 mmHg 43%
12:00 +38°C° 0 mm 3 mps 731 mmHg 39%
13:00 +39°C° 0 mm 3 mps 730 mmHg 36%
14:00 +40°C° 0 mm 3 mps 729 mmHg 32%
15:00 +41°C° 0 mm 2 mps 728 mmHg 28%
16:00 +40°C° 0.1 mm 3 mps 728 mmHg 29%
17:00 +40°C° 0.1 mm 3 mps 728 mmHg 29%
18:00 +40°C° 0.1 mm 3 mps 728 mmHg 29%
19:00 +39°C° 0.6 mm 3 mps 728 mmHg 33%
20:00 +38°C° 0.6 mm 3 mps 729 mmHg 37%
21:00 +37°C° 0.6 mm 2 mps 729 mmHg 40%
22:00 +37°C° 0.1 mm 2 mps 729 mmHg 41%
23:00 +37°C° 0.1 mm 2 mps 729 mmHg 42%

16 August, Sunday

Time Temperature Precipitation Wind Pressure Humidity
00:00 +35°C° 0.1 mm 1 mps 730 mmHg 43%
01:00 +35°C° 0 mm 1 mps 729 mmHg 45%
02:00 +35°C° 0 mm 1 mps 729 mmHg 46%
03:00 +35°C° 0 mm 1 mps 728 mmHg 47%
04:00 +34°C° 0 mm 1 mps 729 mmHg 48%
05:00 +34°C° 0 mm 1 mps 729 mmHg 48%
06:00 +34°C° 0 mm 1 mps 730 mmHg 49%
07:00 +36°C° 0 mm 2 mps 730 mmHg 45%
08:00 +36°C° 0 mm 2 mps 730 mmHg 41%
09:00 +37°C° 0 mm 3 mps 731 mmHg 37%
10:00 +38°C° 0 mm 3 mps 731 mmHg 35%
11:00 +39°C° 0 mm 3 mps 731 mmHg 33%
12:00 +40°C° 0 mm 3 mps 730 mmHg 31%
13:00 +40°C° 0 mm 3 mps 730 mmHg 29%
14:00 +42°C° 0 mm 3 mps 729 mmHg 27%
15:00 +43°C° 0 mm 3 mps 728 mmHg 26%
16:00 +43°C° 0 mm 3 mps 728 mmHg 26%
17:00 +42°C° 0 mm 2 mps 728 mmHg 26%
18:00 +41°C° 0 mm 2 mps 728 mmHg 26%
19:00 +42°C° 0 mm 3 mps 729 mmHg 27%
20:00 +40°C° 0 mm 3 mps 729 mmHg 28%
21:00 +41°C° 0 mm 4 mps 730 mmHg 28%
22:00 +39°C° 0 mm 3 mps 730 mmHg 29%
23:00 +38°C° 0 mm 2 mps 730 mmHg 30%

17 August, Monday

Time Temperature Precipitation Wind Pressure Humidity
00:00 +38°C° 0 mm 2 mps 730 mmHg 31%
01:00 +36°C° 0 mm 1 mps 730 mmHg 33%
02:00 +36°C° 0 mm 1 mps 730 mmHg 34%
03:00 +36°C° 0 mm 1 mps 729 mmHg 36%
04:00 +35°C° 0 mm 1 mps 730 mmHg 37%
05:00 +35°C° 0 mm 1 mps 730 mmHg 39%
06:00 +35°C° 0 mm 1 mps 731 mmHg 40%
07:00 +36°C° 0 mm 2 mps 731 mmHg 39%
08:00 +37°C° 0 mm 2 mps 731 mmHg 39%
09:00 +37°C° 0 mm 3 mps 732 mmHg 38%
10:00 +38°C° 0 mm 3 mps 731 mmHg 35%
11:00 +39°C° 0 mm 3 mps 731 mmHg 32%
12:00 +40°C° 0 mm 3 mps 730 mmHg 28%
13:00 +42°C° 0 mm 3 mps 730 mmHg 26%
14:00 +43°C° 0 mm 4 mps 729 mmHg 24%
15:00 +44°C° 0 mm 4 mps 728 mmHg 21%
16:00 +44°C° 0 mm 4 mps 728 mmHg 21%
17:00 +44°C° 0 mm 4 mps 728 mmHg 20%
18:00 +44°C° 0 mm 4 mps 728 mmHg 19%
19:00 +43°C° 0 mm 4 mps 728 mmHg 22%
20:00 +42°C° 0 mm 5 mps 729 mmHg 26%
21:00 +41°C° 0 mm 5 mps 729 mmHg 30%
22:00 +40°C° 0 mm 4 mps 729 mmHg 32%
23:00 +38°C° 0 mm 4 mps 729 mmHg 34%

18 August, Tuesday

Time Temperature Precipitation Wind Pressure Humidity
00:00 +37°C° 0 mm 3 mps 729 mmHg 37%
01:00 +37°C° 0 mm 3 mps 729 mmHg 38%
02:00 +37°C° 0 mm 2 mps 729 mmHg 39%
03:00 +36°C° 0 mm 2 mps 728 mmHg 40%
04:00 +36°C° 0 mm 2 mps 729 mmHg 41%
05:00 +35°C° 0 mm 1 mps 729 mmHg 42%
06:00 +35°C° 0 mm 1 mps 729 mmHg 43%
07:00 +36°C° 0 mm 1 mps 730 mmHg 39%
08:00 +37°C° 0 mm 1 mps 730 mmHg 36%
09:00 +39°C° 0 mm 1 mps 731 mmHg 32%
10:00 +40°C° 0 mm 2 mps 730 mmHg 29%
11:00 +41°C° 0 mm 2 mps 730 mmHg 26%
12:00 +43°C° 0 mm 3 mps 729 mmHg 23%
13:00 +44°C° 0 mm 4 mps 729 mmHg 21%
14:00 +45°C° 0 mm 4 mps 728 mmHg 20%
15:00 +47°C° 0 mm 5 mps 728 mmHg 19%
16:00 +46°C° 0 mm 6 mps 727 mmHg 19%
17:00 +46°C° 0 mm 8 mps 727 mmHg 20%
18:00 +45°C° 0 mm 9 mps 727 mmHg 20%
19:00 +44°C° 0 mm 8 mps 727 mmHg 24%
20:00 +41°C° 0 mm 7 mps 728 mmHg 28%
21:00 +40°C° 0 mm 7 mps 728 mmHg 31%
22:00 +40°C° 0 mm 6 mps 728 mmHg 34%
23:00 +39°C° 0 mm 5 mps 728 mmHg 36%
Show more